EZS68GC EGKK-LFSB

Flight info

Callsign EZS68GC
Flight time 1h 6m
Altitude 29000
Route BOGNA L612 HAWKE UL612 VEULE DCT TEPRI UN491 POGZI DCT GELTA DCT MANAG DCT MOTUK DCT LUL G42 ARPUS
Aircraft A320/M-SDE2E3FGHIJ1RWXYZ/LB1

Departure

Time 2026-04-16 13:31
Airport London Gatwick Airport (EGKK)

Arrival

Time 2026-04-16 14:38
Airport EuroAirport Basel–Mulhouse–Freiburg (LFSB)
Time Latitude Longitude Altitude Speed Heading
2026-04-16 13:09 51.15838 -0.17631 204 ft 0 kts 348°
2026-04-16 13:19 51.15817 -0.17624 208 ft 4 kts 348°
2026-04-16 13:19 51.15791 -0.17615 215 ft 4 kts 347°
2026-04-16 13:20 51.15765 -0.17607 212 ft 4 kts
2026-04-16 13:20 51.15746 -0.17620 216 ft 4 kts 72°
2026-04-16 13:20 51.15741 -0.17652 212 ft 3 kts 77°
2026-04-16 13:20 51.15740 -0.17656 212 ft 0 kts 77°
2026-04-16 13:24 51.15741 -0.17656 204 ft 1 kts 77°
2026-04-16 13:24 51.15743 -0.17635 204 ft 2 kts 77°
2026-04-16 13:24 51.15745 -0.17622 210 ft 1 kts 77°
2026-04-16 13:25 51.15746 -0.17619 209 ft 0 kts 77°
2026-04-16 13:25 51.15750 -0.17585 215 ft 6 kts 77°
2026-04-16 13:25 51.15746 -0.17516 216 ft 7 kts 128°
2026-04-16 13:25 51.15699 -0.17490 211 ft 8 kts 169°
2026-04-16 13:26 51.15635 -0.17469 207 ft 11 kts 168°
2026-04-16 13:26 51.15554 -0.17441 207 ft 13 kts 167°
2026-04-16 13:26 51.15461 -0.17408 204 ft 14 kts 167°
2026-04-16 13:26 51.15358 -0.17372 208 ft 16 kts 167°
2026-04-16 13:27 51.15248 -0.17316 208 ft 17 kts 148°
2026-04-16 13:27 51.15185 -0.17236 210 ft 8 kts 128°
2026-04-16 13:27 51.15181 -0.17163 207 ft 6 kts 76°
2026-04-16 13:27 51.15190 -0.17100 212 ft 5 kts 76°
2026-04-16 13:28 51.15199 -0.17049 208 ft 4 kts 75°
2026-04-16 13:28 51.15206 -0.17006 211 ft 4 kts 75°
2026-04-16 13:28 51.15211 -0.16972 204 ft 2 kts 77°
2026-04-16 13:28 51.15215 -0.16943 206 ft 3 kts 77°
2026-04-16 13:29 51.15218 -0.16921 213 ft 0 kts 78°
2026-04-16 13:29 51.15218 -0.16919 212 ft 1 kts 78°
2026-04-16 13:30 51.15223 -0.16888 207 ft 6 kts 78°
2026-04-16 13:30 51.15201 -0.16802 209 ft 12 kts 152°
2026-04-16 13:30 51.15119 -0.16837 207 ft 15 kts 242°
2026-04-16 13:30 51.15092 -0.17008 203 ft 21 kts 258°
2026-04-16 13:31 51.15013 -0.17582 215 ft 86 kts 257°
2026-04-16 13:31 51.14840 -0.18822 213 ft 140 kts 257°
2026-04-16 13:31 51.14627 -0.20437 646 ft 149 kts 255°
2026-04-16 13:31 51.14418 -0.22022 1465 ft 143 kts 253°
2026-04-16 13:32 51.14210 -0.23554 2128 ft 142 kts 253°
2026-04-16 13:32 51.13993 -0.25114 2708 ft 145 kts 255°
2026-04-16 13:32 51.13771 -0.26714 3153 ft 160 kts 255°
2026-04-16 13:32 51.13508 -0.28561 3449 ft 182 kts 256°
2026-04-16 13:33 51.13209 -0.30653 3794 ft 202 kts 256°
2026-04-16 13:33 51.12885 -0.32926 4360 ft 215 kts 256°
2026-04-16 13:33 51.12557 -0.35269 4983 ft 218 kts 256°
2026-04-16 13:33 51.12228 -0.37644 5020 ft 218 kts 256°
2026-04-16 13:34 51.11828 -0.39979 5464 ft 218 kts 243°
2026-04-16 13:34 51.10784 -0.41721 6278 ft 226 kts 208°
2026-04-16 13:34 51.09208 -0.42096 7107 ft 236 kts 181°
2026-04-16 13:34 51.07563 -0.41919 7954 ft 240 kts 179°
2026-04-16 13:35 51.05814 -0.41681 8387 ft 264 kts 179°
2026-04-16 13:35 51.03956 -0.41414 9055 ft 275 kts 179°
2026-04-16 13:35 51.02043 -0.40875 9873 ft 286 kts 166°
2026-04-16 13:35 51.00173 -0.39624 10529 ft 302 kts 158°
2026-04-16 13:36 50.98255 -0.37944 10849 ft 325 kts 153°
2026-04-16 13:36 50.96299 -0.36076 11470 ft 335 kts 153°
2026-04-16 13:36 50.94284 -0.34156 12242 ft 340 kts 153°
2026-04-16 13:36 50.92224 -0.32267 13016 ft 344 kts 154°
2026-04-16 13:37 50.90119 -0.30422 13796 ft 347 kts 155°
2026-04-16 13:37 50.87963 -0.28599 14494 ft 351 kts 156°
2026-04-16 13:37 50.85780 -0.26800 15151 ft 355 kts 156°
2026-04-16 13:37 50.83569 -0.24996 15818 ft 359 kts 157°
2026-04-16 13:38 50.81365 -0.23201 16458 ft 363 kts 157°
2026-04-16 13:38 50.79110 -0.21362 17130 ft 367 kts 157°
2026-04-16 13:38 50.76830 -0.19492 17792 ft 370 kts 157°
2026-04-16 13:38 50.74527 -0.17596 18440 ft 374 kts 157°
2026-04-16 13:39 50.72205 -0.15681 18998 ft 378 kts 157°
2026-04-16 13:39 50.69857 -0.13746 19559 ft 382 kts 157°
2026-04-16 13:39 50.67488 -0.11795 20109 ft 385 kts 157°
2026-04-16 13:39 50.65096 -0.09832 20657 ft 389 kts 158°
2026-04-16 13:40 50.62681 -0.07856 21168 ft 393 kts 158°
2026-04-16 13:40 50.60276 -0.05892 21678 ft 397 kts 158°
2026-04-16 13:40 50.57804 -0.03876 22206 ft 401 kts 158°
2026-04-16 13:40 50.55310 -0.01844 22726 ft 404 kts 158°
2026-04-16 13:41 50.52797 0.00200 23229 ft 408 kts 158°
2026-04-16 13:41 50.50283 0.02239 23745 ft 412 kts 158°
2026-04-16 13:41 50.47719 0.04316 24181 ft 415 kts 158°
2026-04-16 13:41 50.45140 0.06405 24604 ft 418 kts 158°
2026-04-16 13:42 50.42531 0.08515 25056 ft 421 kts 158°
2026-04-16 13:42 50.40802 0.09915 25291 ft 423 kts 158°
2026-04-16 13:42 50.38175 0.12040 25700 ft 427 kts 158°
2026-04-16 13:42 50.34660 0.14889 26242 ft 431 kts 158°
2026-04-16 13:43 50.31989 0.17061 26648 ft 434 kts 158°
2026-04-16 13:43 50.30175 0.18540 26923 ft 436 kts 158°
2026-04-16 13:43 50.27512 0.20712 27318 ft 438 kts 159°
2026-04-16 13:43 50.24796 0.22927 27704 ft 441 kts 158°
2026-04-16 13:44 50.22171 0.25519 28092 ft 452 kts 148°
2026-04-16 13:44 50.19103 0.30037 28570 ft 465 kts 134°
2026-04-16 13:44 50.17773 0.32784 28827 ft 470 kts 128°
2026-04-16 13:44 50.15973 0.37063 29167 ft 473 kts 127°
2026-04-16 13:45 50.14198 0.41283 29244 ft 465 kts 127°
2026-04-16 13:45 50.12448 0.45435 29249 ft 450 kts 128°
2026-04-16 13:45 50.10730 0.49494 29250 ft 446 kts 127°
2026-04-16 13:46 50.07317 0.57507 29252 ft 445 kts 128°
2026-04-16 13:46 50.03879 0.65536 29250 ft 445 kts 128°
2026-04-16 13:47 50.00434 0.73558 29250 ft 445 kts 128°
2026-04-16 13:47 49.97018 0.81514 29253 ft 445 kts 128°
2026-04-16 13:48 49.93586 0.89507 29234 ft 444 kts 127°
2026-04-16 13:48 49.90171 0.97431 29234 ft 443 kts 127°
2026-04-16 13:49 49.86723 1.05380 29236 ft 443 kts 127°
2026-04-16 13:49 49.83296 1.13264 29238 ft 443 kts 127°
2026-04-16 13:50 49.79848 1.21174 29245 ft 443 kts 127°
2026-04-16 13:50 49.76390 1.29078 29247 ft 443 kts 127°
2026-04-16 13:51 49.72933 1.36966 29228 ft 442 kts 127°
2026-04-16 13:51 49.69484 1.44816 29235 ft 443 kts 127°
2026-04-16 13:52 49.66015 1.52693 29232 ft 443 kts 127°
2026-04-16 13:52 49.62494 1.60645 29506 ft 456 kts 127°
2026-04-16 13:52 49.60695 1.64696 29923 ft 458 kts 127°
2026-04-16 13:53 49.58908 1.68722 30416 ft 458 kts 127°
2026-04-16 13:53 49.57107 1.72772 30848 ft 458 kts 127°
2026-04-16 13:53 49.55303 1.76821 31195 ft 459 kts 128°
2026-04-16 13:54 49.51685 1.84921 31258 ft 459 kts 127°
2026-04-16 13:54 49.48065 1.93011 31240 ft 457 kts 127°
2026-04-16 13:55 49.44463 2.01052 31251 ft 456 kts 127°
2026-04-16 13:55 49.40865 2.09034 31254 ft 456 kts 127°
2026-04-16 13:56 49.37241 2.17036 31244 ft 455 kts 127°
2026-04-16 13:56 49.33613 2.25033 31246 ft 456 kts 127°
2026-04-16 13:57 49.29996 2.32986 31247 ft 456 kts 127°
2026-04-16 13:57 49.26359 2.40964 31237 ft 456 kts 127°
2026-04-16 13:58 49.20921 2.52878 31264 ft 456 kts 127°
2026-04-16 13:58 49.17260 2.60842 31268 ft 456 kts 127°
2026-04-16 13:59 49.13621 2.68739 31264 ft 456 kts 127°
2026-04-16 13:59 49.09953 2.76666 31262 ft 456 kts 127°
2026-04-16 14:00 49.06287 2.84571 31255 ft 456 kts 127°
2026-04-16 14:00 49.02640 2.92426 31244 ft 456 kts 127°
2026-04-16 14:01 48.98968 3.00313 31256 ft 455 kts 127°
2026-04-16 14:01 48.95314 3.08123 31268 ft 455 kts 127°
2026-04-16 14:02 48.91634 3.15981 31261 ft 455 kts 127°
2026-04-16 14:02 48.87945 3.23833 31258 ft 455 kts 127°
2026-04-16 14:03 48.84271 3.31621 31257 ft 455 kts 127°
2026-04-16 14:03 48.80564 3.39448 31260 ft 455 kts 127°
2026-04-16 14:04 48.76883 3.47205 31261 ft 456 kts 127°
2026-04-16 14:04 48.73176 3.55001 31261 ft 456 kts 127°
2026-04-16 14:05 48.69446 3.62824 31261 ft 456 kts 127°
2026-04-16 14:05 48.65747 3.70561 31265 ft 456 kts 127°
2026-04-16 14:06 48.62006 3.78342 31265 ft 456 kts 127°
2026-04-16 14:06 48.58272 3.86090 31248 ft 456 kts 127°
2026-04-16 14:07 48.54561 3.93783 31260 ft 454 kts 127°
2026-04-16 14:07 48.50847 4.01518 31267 ft 454 kts 123°
2026-04-16 14:08 48.47855 4.09860 31266 ft 454 kts 117°
2026-04-16 14:08 48.44943 4.18301 31263 ft 453 kts 117°
2026-04-16 14:09 48.42016 4.26748 31260 ft 453 kts 118°
2026-04-16 14:09 48.39106 4.35103 31258 ft 453 kts 117°
2026-04-16 14:10 48.36169 4.43527 31252 ft 453 kts 117°
2026-04-16 14:10 48.33262 4.51853 31243 ft 452 kts 117°
2026-04-16 14:11 48.30321 4.60237 31251 ft 452 kts 118°
2026-04-16 14:11 48.27390 4.68547 31250 ft 451 kts 118°
2026-04-16 14:12 48.24450 4.76876 31253 ft 451 kts 117°
2026-04-16 14:12 48.21531 4.85138 30931 ft 442 kts 117°
2026-04-16 14:13 48.20094 4.89187 30709 ft 437 kts 117°
2026-04-16 14:13 48.18662 4.93208 30463 ft 434 kts 117°
2026-04-16 14:13 48.17244 4.97193 30196 ft 432 kts 117°
2026-04-16 14:13 48.15852 5.01105 29925 ft 430 kts 117°
2026-04-16 14:14 48.14449 5.05041 29637 ft 428 kts 117°
2026-04-16 14:14 48.13044 5.08971 29359 ft 426 kts 118°
2026-04-16 14:14 48.11644 5.12870 29086 ft 424 kts 118°
2026-04-16 14:14 48.10246 5.16753 28799 ft 421 kts 118°
2026-04-16 14:15 48.08858 5.20607 28529 ft 419 kts 118°
2026-04-16 14:15 48.07476 5.24435 28259 ft 417 kts 118°
2026-04-16 14:15 48.06098 5.28250 27991 ft 415 kts 118°
2026-04-16 14:15 48.04745 5.31995 27730 ft 413 kts 118°
2026-04-16 14:16 48.03379 5.35769 27479 ft 411 kts 118°
2026-04-16 14:16 48.02019 5.39526 27218 ft 410 kts 118°
2026-04-16 14:16 48.00664 5.43266 26925 ft 408 kts 119°
2026-04-16 14:16 47.99314 5.46986 26568 ft 405 kts 119°
2026-04-16 14:17 47.97972 5.50677 26218 ft 403 kts 119°
2026-04-16 14:17 47.96638 5.54343 25851 ft 401 kts 119°
2026-04-16 14:17 47.95320 5.57956 25391 ft 400 kts 119°
2026-04-16 14:17 47.93991 5.61596 24909 ft 399 kts 120°
2026-04-16 14:18 47.92667 5.65218 24438 ft 398 kts 120°
2026-04-16 14:18 47.91342 5.68836 23976 ft 396 kts 120°
2026-04-16 14:18 47.90015 5.72448 23462 ft 395 kts 120°
2026-04-16 14:18 47.88696 5.76042 22921 ft 394 kts 120°
2026-04-16 14:19 47.87376 5.79634 22388 ft 393 kts 120°
2026-04-16 14:19 47.86079 5.83154 21869 ft 393 kts 120°
2026-04-16 14:19 47.84764 5.86717 21362 ft 392 kts 120°
2026-04-16 14:19 47.83453 5.90266 20864 ft 390 kts 120°
2026-04-16 14:20 47.82145 5.93810 20386 ft 389 kts 120°
2026-04-16 14:20 47.80837 5.97348 19900 ft 388 kts 120°
2026-04-16 14:20 47.79532 6.00868 19418 ft 387 kts 120°
2026-04-16 14:20 47.78247 6.04331 18951 ft 386 kts 120°
2026-04-16 14:21 47.76952 6.07821 18470 ft 380 kts 120°
2026-04-16 14:21 47.75699 6.11195 17939 ft 367 kts 120°
2026-04-16 14:21 47.74478 6.14472 17441 ft 355 kts 120°
2026-04-16 14:21 47.73292 6.17646 17021 ft 347 kts 120°
2026-04-16 14:22 47.72127 6.20750 16613 ft 342 kts 120°
2026-04-16 14:22 47.70978 6.23812 16209 ft 337 kts 120°
2026-04-16 14:22 47.69848 6.26844 15812 ft 333 kts 118°
2026-04-16 14:22 47.69018 6.30005 15422 ft 331 kts 105°
2026-04-16 14:23 47.68666 6.33363 15034 ft 328 kts 93°
2026-04-16 14:23 47.68535 6.36735 14649 ft 325 kts 93°
2026-04-16 14:23 47.68400 6.40065 14269 ft 322 kts 94°
2026-04-16 14:23 47.68262 6.43358 13867 ft 315 kts 94°
2026-04-16 14:24 47.68126 6.46570 13444 ft 308 kts 94°
2026-04-16 14:24 47.67995 6.49709 13023 ft 301 kts 94°
2026-04-16 14:24 47.67866 6.52722 12643 ft 292 kts 94°
2026-04-16 14:24 47.67737 6.55690 12284 ft 283 kts 94°
2026-04-16 14:25 47.67610 6.58560 11930 ft 275 kts 93°
2026-04-16 14:25 47.67485 6.61364 11581 ft 269 kts 93°
2026-04-16 14:25 47.67362 6.64115 11235 ft 266 kts 93°
2026-04-16 14:25 47.67240 6.66871 10896 ft 268 kts 93°
2026-04-16 14:26 47.67115 6.69600 10563 ft 269 kts 93°
2026-04-16 14:26 47.66983 6.72375 10224 ft 269 kts 94°
2026-04-16 14:26 47.66849 6.75138 9862 ft 268 kts 93°
2026-04-16 14:26 47.66716 6.77894 9527 ft 266 kts 94°
2026-04-16 14:27 47.66584 6.80625 9207 ft 264 kts 93°
2026-04-16 14:27 47.66455 6.83293 8897 ft 261 kts 94°
2026-04-16 14:27 47.66328 6.85964 8586 ft 258 kts 93°
2026-04-16 14:27 47.66198 6.88609 8280 ft 255 kts 94°
2026-04-16 14:28 47.66066 6.91227 7982 ft 253 kts 94°
2026-04-16 14:28 47.65936 6.93806 7669 ft 246 kts 94°
2026-04-16 14:28 47.65812 6.96266 7371 ft 237 kts 94°
2026-04-16 14:28 47.65692 6.98660 7085 ft 229 kts 93°
2026-04-16 14:29 47.65575 7.00979 6845 ft 224 kts 93°
2026-04-16 14:29 47.65460 7.03287 6608 ft 224 kts 93°
2026-04-16 14:29 47.65344 7.05586 6345 ft 223 kts 94°
2026-04-16 14:29 47.65268 7.07107 6173 ft 223 kts 94°
2026-04-16 14:30 47.65154 7.09401 5927 ft 222 kts 94°
2026-04-16 14:30 47.65008 7.12431 5577 ft 221 kts 94°
2026-04-16 14:30 47.64936 7.13942 5406 ft 221 kts 93°
2026-04-16 14:30 47.64831 7.16214 5158 ft 220 kts 93°
2026-04-16 14:31 47.64693 7.19214 4814 ft 218 kts 94°
2026-04-16 14:31 47.64624 7.20714 4636 ft 213 kts 94°
2026-04-16 14:31 47.64527 7.22849 4390 ft 208 kts 93°
2026-04-16 14:31 47.64432 7.24949 4165 ft 201 kts 93°
2026-04-16 14:32 47.64340 7.26991 3910 ft 195 kts 94°
2026-04-16 14:32 47.64252 7.28975 3650 ft 190 kts 94°
2026-04-16 14:32 47.64165 7.30898 3408 ft 187 kts 94°
2026-04-16 14:32 47.64077 7.32807 3151 ft 184 kts 94°
2026-04-16 14:33 47.63991 7.34675 2955 ft 180 kts 94°
2026-04-16 14:33 47.63907 7.36521 2779 ft 178 kts 94°
2026-04-16 14:33 47.63823 7.38351 2602 ft 178 kts 94°
2026-04-16 14:33 47.63738 7.40173 2423 ft 177 kts 94°
2026-04-16 14:34 47.63651 7.41998 2249 ft 177 kts 94°
2026-04-16 14:34 47.63564 7.43813 2077 ft 176 kts 94°
2026-04-16 14:34 47.63481 7.45592 1927 ft 164 kts 94°
2026-04-16 14:34 47.63407 7.47199 1734 ft 150 kts 94°
2026-04-16 14:35 47.63338 7.48708 1580 ft 144 kts 94°
2026-04-16 14:35 47.63264 7.50186 1523 ft 143 kts 97°
2026-04-16 14:35 47.62915 7.51534 1530 ft 141 kts 124°
2026-04-16 14:35 47.62325 7.52705 1567 ft 141 kts 125°
2026-04-16 14:36 47.61992 7.54048 1597 ft 143 kts 96°
2026-04-16 14:36 47.62119 7.55497 1522 ft 142 kts 76°
2026-04-16 14:36 47.62303 7.56931 1432 ft 142 kts 93°
2026-04-16 14:36 47.61922 7.58238 1269 ft 140 kts 138°
2026-04-16 14:37 47.61023 7.58654 1269 ft 141 kts 190°
2026-04-16 14:37 47.60209 7.57897 1291 ft 142 kts 226°
2026-04-16 14:37 47.59589 7.56769 1315 ft 139 kts 239°
2026-04-16 14:37 47.59345 7.55380 1124 ft 142 kts 263°
2026-04-16 14:38 47.59146 7.53951 927 ft 142 kts 255°
2026-04-16 14:38 47.58935 7.52618 874 ft 111 kts 258°
2026-04-16 14:38 47.58835 7.51967 871 ft 29 kts 257°
2026-04-16 14:38 47.58817 7.51737 868 ft 12 kts 299°
2026-04-16 14:39 47.58875 7.51681 873 ft 7 kts 345°
2026-04-16 14:39 47.58912 7.51669 874 ft 4 kts 353°
2026-04-16 14:39 47.58934 7.51675 874 ft 2 kts 11°
2026-04-16 14:39 47.58964 7.51698 875 ft 8 kts 41°
2026-04-16 14:40 47.59021 7.51788 875 ft 16 kts 45°
2026-04-16 14:40 47.59107 7.51913 875 ft 18 kts 44°
2026-04-16 14:40 47.59203 7.52052 875 ft 20 kts 46°
2026-04-16 14:40 47.59285 7.52223 875 ft 22 kts 65°
2026-04-16 14:41 47.59348 7.52422 875 ft 21 kts 65°
2026-04-16 14:41 47.59412 7.52621 877 ft 21 kts 64°
2026-04-16 14:41 47.59468 7.52792 876 ft 16 kts 64°
2026-04-16 14:41 47.59540 7.52830 875 ft 11 kts 340°
2026-04-16 14:42 47.59609 7.52798 874 ft 9 kts 354°
2026-04-16 14:42 47.59646 7.52859 873 ft 8 kts 66°
2026-04-16 14:42 47.59666 7.52925 873 ft 7 kts 66°
2026-04-16 14:42 47.59683 7.52982 872 ft 5 kts 66°
2026-04-16 14:43 47.59700 7.53023 874 ft 4 kts 42°
2026-04-16 14:43 47.59724 7.53026 874 ft 4 kts 351°
2026-04-16 14:43 47.59758 7.52982 875 ft 9 kts 313°
2026-04-16 14:43 47.59777 7.52954 875 ft 1 kts 315°
2026-04-16 14:44 47.59778 7.52952 875 ft 0 kts 315°